Regional Weather Roundup
Issued by NWS

Home | Current Version | Previous Version | Graphics & Text | Print | Product List | Glossary On
Versions: 1 2 3 4 5 6 7 8 9 10 11 12 13 14 15 16 17 18 19 20 21 22 23 24 25 26 27 28 29 30 31 32 33 34 35 36 37 38 39 40 41 42 43 44 45 46 47 48 49 50
000
ASUS43 KLOT 190208
RWRIL

ILLINOIS REGIONAL WEATHER ROUNDUP
NATIONAL WEATHER SERVICE CHICAGO/ROMEOVILLE IL
900 PM CDT FRI AUG 18 2017

NOTE: "FAIR" INDICATES FEW OR NO CLOUDS BELOW 12,000 FEET WITH NO
SIGNIFICANT WEATHER AND/OR OBSTRUCTIONS TO VISIBILITY.

* THESE STATIONS ARE NOT UNDER NWS QUALITY CONTROL. THEY ALSO MAY NOT
  REPORT WEATHER SUCH AS PRECIPITATION OR FOG.

ILZ001-002-007-009-015-016-024-190300-
NORTHWEST ILLINOIS

CITY           SKY/WX    TMP DP  RH WIND       PRES   REMARKS
MOLINE         CLOUDY    76  62  62 N6        29.89R
STERLING*      CLOUDY    73  63  70 N3        29.90R
SAVANNA*       MOCLDY    69  62  78 CALM      29.91R
$$

ILZ003-004-008-010-011-017-018-190300-
NORTH CENTRAL ILLINOIS

CITY           SKY/WX    TMP DP  RH WIND       PRES   REMARKS
ROCKFORD       MOCLDY    70  60  70 N5        29.91R
FREEPORT*      PTCLDY    65  60  82 N3        29.93R
ROCHELLE*      CLOUDY    71  62  73 NW3       29.90R
DE KALB*       MOCLDY    69  62  78 NW6       29.91R
PERU*          MOCLDY    73  65  74 CALM      29.90R
$$

ILZ005-006-012>014-019>023-190300-
NORTHEAST ILLINOIS

CITY           SKY/WX    TMP DP  RH WIND       PRES   REMARKS
CHICAGO-OHARE  MOCLDY    76  61  59 NW8       29.87R
CHICAGO-MIDWAY MOCLDY    77  60  55 W7        29.87R
AURORA         MOCLDY    70  64  81 CALM      29.89R
LANSING*       CLEAR     72  59  64 SW3       29.88R
JOLIET*        CLOUDY    76  64  67 CALM      29.89R
WAUKEGAN       CLOUDY    69  63  81 CALM      29.86R
DUPAGE AIRPORT PTCLDY    70  63  78 W6        29.88R
KANKAKEE*      CLEAR     72  64  78 W3        29.90R
WHEELING       MOCLDY    75  64  68 W3        29.88R
MORRIS*        MOCLDY    71  65  82 W3        29.88R
ROMEOVILLE*    CLOUDY    72  61  68 NW6       29.88R
NORTHERLY ISL    N/A     77  58  51 NW7         N/A
$$

LMZ740>746-190300-
SOUTHERN LAKE MICHIGAN

STATION/POSITION SKY/WX   TEMP    WIND        PRES    VSBY  WAVE
                          AIR SEA DIR/SP/G                  HT/PER
                          (F)     (DEG/KT/KT) (MB)    (MI)  (FT/S)
SOUTHERN BUOY              71 71  140/  6/  6 1011.0R         1/ 5
WILMETTE HARBOR            75 73  290/  8/ 10   N/A           1/ 2
HARRISON CRIB              75     170/  4/  6   N/A
CALUMET HARBOR             77     230/  3/  7 1011.0R
BURNS HARBOR               74      70/  3/  7 1012.2
MICHIGAN CITY              72     100/  3/  4   N/A
MICHIGAN CITY 6N           73 74  120/  4/  4   N/A           2/ 5
ST. JOSEPH                 72 74  170/  4/  6 1011.2          2/ 5
$$

ILZ025>027-034>036-040-047-049-050-058-095>099-190300-
WEST-CENTRAL ILLINOIS

CITY           SKY/WX    TMP DP  RH WIND       PRES   REMARKS
QUINCY         PTCLDY    76  66  71 S6        29.89R
GALESBURG*     CLOUDY    67  65  91 N3        29.91R
MACOMB*        CLOUDY    70  63  76 SW5       29.92F
JACKSONVILLE*  RAIN      77  66  68 S10       29.89F
PITTSFIELD*    PTCLDY    77  65  65 S9        29.91S
$$

ILZ028>032-037-038-041>044-048-051>054-059>061-190300-
CENTRAL ILLINOIS

CITY           SKY/WX    TMP DP  RH WIND       PRES   REMARKS
PONTIAC        MOCLDY    69  68  96 CALM      29.90S
BLOOMINGTON    CLEAR     74  67  78 SW7       29.91R
DECATUR        CLOUDY    74  66  76 SW8       29.91R
PEORIA         CLOUDY    77  69  76 CALM      29.90R
LACON*         CLOUDY    72  69  91 CALM      29.88R
LINCOLN*       PTCLDY    77  68  74 SW3       29.90R
SPRINGFIELD    PTCLDY    76  67  73 S8        29.90R
TAYLORVILLE    PTCLDY    72  67  85 SW5       29.93R
$$

ILZ033-039-045-046-055>057-062-063-190300-
EAST-CENTRAL ILLINOIS

CITY           SKY/WX    TMP DP  RH WIND       PRES   REMARKS
CHAMPAIGN      CLEAR     69  65  86 S6        29.92R
RANTOUL*       CLEAR     74  67  78 SW5       29.91R
MATTOON        PTCLDY    74  67  78 SW6       29.92R
PARIS*         CLEAR     67  64  90 SW6       29.92R
$$

ILZ079-100>102-190300-
SOUTHWEST ILLINOIS

CITY           SKY/WX    TMP DP  RH WIND       PRES   REMARKS
ALTON          MOCLDY    72  66  83 SW6       29.94R
BELLEVILLE     CLOUDY    77  68  74 W5        29.94R
CAHOKIA*       PTCLDY    75  67  76 CALM      29.93R
SPARTA*        CLOUDY    77  68  74 S3        29.95R
$$

ILZ064>066-069>071-074>076-080>082-084>086-088>090-092>094-190300-
SOUTH-CENTRAL ILLINOIS

CITY           SKY/WX    TMP DP  RH WIND       PRES   REMARKS
CARBONDALE     MOCLDY    73  71  93 S5        29.94S
CAIRO*         CLOUDY    75  70  84 S5        29.95R
EFFINGHAM*     CLOUDY    75  67  75 CALM      29.94R
MARION         CLOUDY    73  73 100 CALM      29.96R
MT. VERNON       N/A     76  68  76 SW5       29.95R
CENTRALIA*     CLOUDY    76  68  75 SW6       29.94R
SALEM*         CLOUDY    77  66  69 SW5       29.94R
METROPOLIS*    CLEAR     73  69  86 CALM      29.97R
$$

ILZ067-068-072-073-078-083-087-091-190300-
SOUTHEAST ILLINOIS

CITY           SKY/WX    TMP DP  RH WIND       PRES   REMARKS
LAWRENCEVILLE  CLOUDY    74  65  73 SW8       29.92R
FLORA*         CLEAR     74  68  81 SW6       29.94R
FAIRFIELD*     CLOUDY    76  67  74 S3        29.93R
HARRISBURG*    MOCLDY    75  69  81 CALM      29.95R
ROBINSON*      CLOUDY    69  67  93 SW5       29.93R
CARMI*         PTCLDY    71  68  92 SW5       29.94R
$$

ABBREVIATIONS USED IN REMARKS
   TC - TEMPERATURE IN CELSIUS
  WCI - WIND CHILL INDEX
   HX - HEAT INDEX
  VSB - VISIBILITY
$$





USA.gov is the U.S. government's official web portal to all federal, state and local government web resources and services.